When you browse on this site, cookies collect data to enhance your experience and personalize the content and advertising you see.
Visit our Privacy Policy to learn more. By continuing to use the site, you agree to this use of cookies and data.
  • In Schweiz
  • Länderverzeichnis
  • Für 7 Tage
  • Wassertemperatur
  • Satellitenkarten
  • Wetterkarte
  • Widgets
  • user-avatar
    Anmelden

    Stündliche Wetter Albany

    Heute, 24 Januar, Donnerstag

    Zeit Temperatur Niederschläge Wind Luftdruck Luftfeuchtigkeit
    00:00 +18°C° 0.2 mm 11 m/S 746 mmHg 77%
    01:00 +18°C° 0.2 mm 11 m/S 747 mmHg 77%
    02:00 +17°C° 0 mm 12 m/S 747 mmHg 78%
    03:00 +17°C° 0.1 mm 11 m/S 748 mmHg 78%
    04:00 +17°C° 0.1 mm 11 m/S 749 mmHg 77%
    05:00 +17°C° 0.1 mm 11 m/S 749 mmHg 77%
    06:00 +17°C° 0.1 mm 10 m/S 750 mmHg 76%
    07:00 +17°C° 0.1 mm 10 m/S 751 mmHg 75%
    08:00 +16°C° 0 mm 10 m/S 752 mmHg 75%
    09:00 +16°C° 0.1 mm 10 m/S 753 mmHg 75%
    10:00 +16°C° 0.1 mm 9 m/S 753 mmHg 75%
    11:00 +15°C° 0.1 mm 8 m/S 754 mmHg 75%
    12:00 +15°C° 0.1 mm 8 m/S 754 mmHg 73%
    13:00 +16°C° 0.1 mm 8 m/S 755 mmHg 71%
    14:00 +16°C° 0.1 mm 7 m/S 755 mmHg 69%
    15:00 +16°C° 0 mm 7 m/S 755 mmHg 69%
    16:00 +15°C° 0 mm 7 m/S 756 mmHg 68%
    17:00 +15°C° 0 mm 7 m/S 756 mmHg 67%
    18:00 +15°C° 0 mm 6 m/S 756 mmHg 68%
    19:00 +15°C° 0 mm 5 m/S 757 mmHg 68%
    20:00 +15°C° 0 mm 5 m/S 757 mmHg 69%
    21:00 +15°C° 0 mm 4 m/S 757 mmHg 69%
    22:00 +14°C° 0 mm 4 m/S 758 mmHg 70%
    23:00 +14°C° 0 mm 3 m/S 758 mmHg 70%

    Morgen, 25 Januar, Freitag

    Zeit Temperatur Niederschläge Wind Luftdruck Luftfeuchtigkeit
    00:00 +14°C° 0 mm 3 m/S 758 mmHg 70%
    01:00 +14°C° 0 mm 3 m/S 758 mmHg 71%
    02:00 +15°C° 0 mm 2 m/S 758 mmHg 71%
    03:00 +15°C° 0 mm 2 m/S 758 mmHg 72%
    04:00 +14°C° 0 mm 2 m/S 758 mmHg 73%
    05:00 +14°C° 0 mm 1 m/S 758 mmHg 74%
    06:00 +15°C° 0 mm 1 m/S 758 mmHg 68%
    07:00 +18°C° 0 mm 1 m/S 758 mmHg 63%
    08:00 +19°C° 0 mm 1 m/S 759 mmHg 57%
    09:00 +19°C° 0 mm 2 m/S 759 mmHg 53%
    10:00 +21°C° 0 mm 2 m/S 759 mmHg 48%
    11:00 +23°C° 0 mm 2 m/S 759 mmHg 43%
    12:00 +22°C° 0 mm 3 m/S 758 mmHg 44%
    13:00 +23°C° 0 mm 4 m/S 758 mmHg 44%
    14:00 +23°C° 0 mm 4 m/S 758 mmHg 45%
    15:00 +22°C° 0 mm 4 m/S 758 mmHg 49%
    16:00 +21°C° 0 mm 5 m/S 758 mmHg 54%
    17:00 +20°C° 0 mm 5 m/S 758 mmHg 58%
    18:00 +19°C° 0 mm 5 m/S 758 mmHg 63%
    19:00 +18°C° 0 mm 4 m/S 758 mmHg 68%
    20:00 +15°C° 0 mm 4 m/S 759 mmHg 74%
    21:00 +16°C° 0 mm 3 m/S 759 mmHg 74%
    22:00 +16°C° 0 mm 3 m/S 760 mmHg 75%
    23:00 +15°C° 0 mm 2 m/S 760 mmHg 76%

    übermorgen, 26 Januar, Samstag

    Zeit Temperatur Niederschläge Wind Luftdruck Luftfeuchtigkeit
    00:00 +14°C° 0 mm 3 m/S 760 mmHg 77%
    01:00 +14°C° 0 mm 3 m/S 760 mmHg 78%
    02:00 +14°C° 0 mm 3 m/S 760 mmHg 79%
    03:00 +14°C° 0 mm 4 m/S 760 mmHg 78%
    04:00 +14°C° 0 mm 4 m/S 760 mmHg 77%
    05:00 +14°C° 0 mm 4 m/S 760 mmHg 76%
    06:00 +15°C° 0 mm 4 m/S 760 mmHg 73%
    07:00 +16°C° 0 mm 3 m/S 761 mmHg 69%
    08:00 +17°C° 0 mm 3 m/S 761 mmHg 66%
    09:00 +18°C° 0 mm 3 m/S 761 mmHg 63%
    10:00 +18°C° 0 mm 3 m/S 761 mmHg 60%
    11:00 +19°C° 0 mm 3 m/S 762 mmHg 57%
    12:00 +20°C° 0 mm 3 m/S 761 mmHg 54%
    13:00 +20°C° 0 mm 4 m/S 761 mmHg 51%
    14:00 +21°C° 0 mm 4 m/S 761 mmHg 48%
    15:00 +21°C° 0 mm 4 m/S 761 mmHg 50%
    16:00 +20°C° 0 mm 4 m/S 760 mmHg 52%
    17:00 +20°C° 0 mm 4 m/S 760 mmHg 53%
    18:00 +18°C° 0 mm 3 m/S 760 mmHg 60%
    19:00 +17°C° 0 mm 3 m/S 761 mmHg 66%
    20:00 +14°C° 0 mm 3 m/S 761 mmHg 73%
    21:00 +15°C° 0 mm 2 m/S 761 mmHg 74%
    22:00 +15°C° 0 mm 2 m/S 762 mmHg 76%
    23:00 +14°C° 0 mm 2 m/S 762 mmHg 78%

    27 Januar, Sonntag

    Zeit Temperatur Niederschläge Wind Luftdruck Luftfeuchtigkeit
    00:00 +14°C° 0 mm 1 m/S 762 mmHg 80%
    01:00 +14°C° 0 mm 1 m/S 761 mmHg 82%
    02:00 +12°C° 0 mm 0 m/S 761 mmHg 84%
    03:00 +12°C° 0 mm 0 m/S 761 mmHg 85%
    04:00 +12°C° 0 mm 0 m/S 760 mmHg 86%
    05:00 +11°C° 0 mm 0 m/S 760 mmHg 87%
    06:00 +13°C° 0 mm 0 m/S 761 mmHg 78%
    07:00 +16°C° 0 mm 0 m/S 761 mmHg 68%
    08:00 +18°C° 0 mm 0 m/S 761 mmHg 58%
    09:00 +22°C° 0 mm 1 m/S 761 mmHg 49%
    10:00 +25°C° 0 mm 1 m/S 761 mmHg 40%
    11:00 +28°C° 0 mm 1 m/S 760 mmHg 32%
    12:00 +27°C° 0 mm 2 m/S 760 mmHg 34%
    13:00 +27°C° 0 mm 3 m/S 759 mmHg 36%
    14:00 +27°C° 0 mm 4 m/S 759 mmHg 38%
    15:00 +26°C° 0 mm 4 m/S 758 mmHg 43%
    16:00 +23°C° 0 mm 4 m/S 758 mmHg 47%
    17:00 +22°C° 0 mm 4 m/S 758 mmHg 52%
    18:00 +20°C° 0 mm 3 m/S 758 mmHg 57%
    19:00 +19°C° 0 mm 2 m/S 758 mmHg 63%
    20:00 +17°C° 0 mm 2 m/S 759 mmHg 68%
    21:00 +18°C° 0 mm 1 m/S 759 mmHg 72%
    22:00 +16°C° 0 mm 1 m/S 759 mmHg 75%
    23:00 +15°C° 0 mm 1 m/S 759 mmHg 79%

    28 Januar, Montag

    Zeit Temperatur Niederschläge Wind Luftdruck Luftfeuchtigkeit
    00:00 +15°C° 0 mm 1 m/S 759 mmHg 81%
    01:00 +15°C° 0 mm 1 m/S 758 mmHg 83%
    02:00 +14°C° 0 mm 1 m/S 758 mmHg 85%
    03:00 +14°C° 0 mm 1 m/S 758 mmHg 86%
    04:00 +14°C° 0 mm 1 m/S 758 mmHg 87%
    05:00 +14°C° 0 mm 1 m/S 758 mmHg 88%
    06:00 +16°C° 0 mm 1 m/S 758 mmHg 78%
    07:00 +19°C° 0 mm 1 m/S 758 mmHg 69%
    08:00 +21°C° 0 mm 1 m/S 758 mmHg 59%
    09:00 +24°C° 0 mm 1 m/S 758 mmHg 49%
    10:00 +27°C° 0 mm 1 m/S 758 mmHg 39%
    11:00 +30°C° 0 mm 1 m/S 757 mmHg 29%
    12:00 +30°C° 0 mm 2 m/S 757 mmHg 31%
    13:00 +29°C° 0 mm 3 m/S 756 mmHg 33%
    14:00 +29°C° 0 mm 4 m/S 756 mmHg 35%
    15:00 +27°C° 0 mm 4 m/S 756 mmHg 40%
    16:00 +26°C° 0 mm 4 m/S 755 mmHg 46%
    17:00 +23°C° 0 mm 4 m/S 755 mmHg 51%
    18:00 +21°C° 0 mm 3 m/S 756 mmHg 60%
    19:00 +20°C° 0 mm 3 m/S 756 mmHg 68%
    20:00 +18°C° 0 mm 2 m/S 756 mmHg 76%
    21:00 +18°C° 0 mm 1 m/S 757 mmHg 80%
    22:00 +18°C° 0 mm 1 m/S 757 mmHg 84%
    23:00 +16°C° 0 mm 1 m/S 757 mmHg 88%

    29 Januar, Dienstag

    Zeit Temperatur Niederschläge Wind Luftdruck Luftfeuchtigkeit
    00:00 +16°C° 0 mm 1 m/S 757 mmHg 89%
    01:00 +15°C° 0 mm 0 m/S 756 mmHg 90%
    02:00 +14°C° 0 mm 0 m/S 756 mmHg 90%
    03:00 +14°C° 0 mm 0 m/S 756 mmHg 91%
    04:00 +15°C° 0 mm 1 m/S 755 mmHg 92%
    05:00 +15°C° 0 mm 1 m/S 755 mmHg 92%
    06:00 +18°C° 0 mm 1 m/S 755 mmHg 82%
    07:00 +20°C° 0 mm 1 m/S 756 mmHg 71%
    08:00 +22°C° 0 mm 1 m/S 756 mmHg 61%
    09:00 +24°C° 0 mm 1 m/S 755 mmHg 55%
    10:00 +25°C° 0 mm 2 m/S 755 mmHg 50%
    11:00 +27°C° 0 mm 3 m/S 755 mmHg 45%
    12:00 +27°C° 0 mm 4 m/S 754 mmHg 48%
    13:00 +26°C° 0 mm 4 m/S 754 mmHg 50%
    14:00 +26°C° 0 mm 5 m/S 754 mmHg 53%
    15:00 +25°C° 0 mm 5 m/S 754 mmHg 57%
    16:00 +23°C° 0 mm 6 m/S 754 mmHg 61%
    17:00 +22°C° 0 mm 6 m/S 754 mmHg 65%
    18:00 +20°C° 0 mm 5 m/S 755 mmHg 70%
    19:00 +19°C° 0 mm 5 m/S 755 mmHg 75%
    20:00 +18°C° 0 mm 4 m/S 756 mmHg 80%
    21:00 +18°C° 0 mm 4 m/S 756 mmHg 79%
    22:00 +18°C° 0 mm 4 m/S 757 mmHg 78%
    23:00 +18°C° 0 mm 4 m/S 757 mmHg 78%
    Mehr zeigen